Find Starlink 30940

NORAD ID: 58409 Int'l Des: 2023-180 Owner: SPXS Country: US Constellation: starlink operational
LEOCIRCULAR

当前视图

正在加载3D地球...

About Starlink 30940

Starlink 30940 (NORAD 58409) is a starlink constellation satellite (v2 mini) launched Nov 22, 2023 by SPXS of US. It operates in LEO, CIRCULAR orbit with a mass of 730.00 kg.

关于 Starlink 30940

正在加载描述...

即将过境

Passes for default location (London). Set your location on the main map for personalized predictions.

高度历史

Loading altitude history...

两行轨道根数

1 58409U 23180H 26175.28319461 .00000522 00000-0 28483-4 0 9993
2 58409 43.0013 25.4840 0001160 278.7226 81.3494 15.27572729145639
Epoch: Jun 24, 2026 • Age: 7 hours

当前状态

高度 482.9 km
速度 7.63 km/s
星下点 19.94°N, 62.44°E
发射日期 Nov 22, 2023
运行时间 2.5 years
类型 internet

技术详情

分类 Payload
质量 730.00 kg
干质量 700.00 kg
总质量 730.00 kg
长度 0.30 m
直径 4.10 m
跨度 29.00 m
形状 Box + pan
制造商 SPXS
平台类型 Starlink V2M
阶段状态 In Orbit
所有者/国家 SPXS/US

Most Searched